Time,TemperatureF,DewpointF,PressureIn,WindDirection,WindDirectionDegrees,WindSpeedMPH,WindSpeedGustMPH,Humidity,HourlyPrecipIn,Conditions,Clouds,dailyrainin,SolarRadiationWatts/m^2,SoftwareType,DateUTC
2013-01-24 00:00:00,13.0,9.0,-100.00,East,90,4.0,-999.0,84,-99.99,,,-99.99,0.000000,,2013-01-24 05:00:00,
2013-01-24 00:43:00,13.0,9.0,-100.00,East,90,4.0,-999.0,84,-99.99,,,-99.99,0.000000,,2013-01-24 05:43:00,
2013-01-24 00:53:00,13.0,9.0,-100.00,East,90,4.0,-999.0,84,-99.99,,,-99.99,0.000000,,2013-01-24 05:53:00,
2013-01-24 01:00:00,12.0,9.0,-100.00,NE,45,10.0,-999.0,87,-99.99,,,-99.99,0.000000,,2013-01-24 06:00:00,
2013-01-24 01:42:00,12.0,9.0,-100.00,NE,45,10.0,-999.0,87,-99.99,,,-99.99,0.000000,,2013-01-24 06:42:00,
2013-01-24 01:53:00,12.0,9.0,-100.00,NE,45,10.0,-999.0,87,-99.99,,,-99.99,0.000000,,2013-01-24 06:53:00,
2013-01-24 02:00:00,12.0,6.0,-100.00,NE,45,9.0,-999.0,76,-99.99,,,-99.99,0.000000,,2013-01-24 07:00:00,
2013-01-24 02:43:00,12.0,6.0,-100.00,NE,45,9.0,-999.0,76,-99.99,,,-99.99,0.000000,,2013-01-24 07:43:00,
2013-01-24 02:53:00,12.0,6.0,-100.00,NE,45,9.0,-999.0,76,-99.99,,,-99.99,0.000000,,2013-01-24 07:53:00,
2013-01-24 03:00:00,12.0,3.0,-100.00,NNE,22,10.0,-999.0,68,-99.99,,,-99.99,0.000000,,2013-01-24 08:00:00,
2013-01-24 03:43:00,12.0,3.0,-100.00,NNE,22,10.0,-999.0,68,-99.99,,,-99.99,0.000000,,2013-01-24 08:43:00,
2013-01-24 03:53:00,12.0,3.0,-100.00,NNE,22,10.0,-999.0,68,-99.99,,,-99.99,0.000000,,2013-01-24 08:53:00,
2013-01-24 04:00:00,11.0,2.0,-100.00,ENE,67,10.0,-999.0,65,-99.99,,,-99.99,0.000000,,2013-01-24 09:00:00,
2013-01-24 04:43:00,11.0,2.0,-100.00,ENE,67,10.0,-999.0,65,-99.99,,,-99.99,0.000000,,2013-01-24 09:43:00,
2013-01-24 04:53:00,11.0,2.0,-100.00,ENE,67,10.0,-999.0,65,-99.99,,,-99.99,0.000000,,2013-01-24 09:53:00,
2013-01-24 05:00:00,10.0,1.0,-100.00,NE,45,10.0,-999.0,67,-99.99,,,-99.99,0.000000,,2013-01-24 10:00:00,
2013-01-24 05:43:00,10.0,1.0,-100.00,NE,45,10.0,-999.0,67,-99.99,,,-99.99,0.000000,,2013-01-24 10:43:00,
2013-01-24 05:53:00,10.0,1.0,-100.00,NE,45,10.0,-999.0,67,-99.99,,,-99.99,0.000000,,2013-01-24 10:53:00,
2013-01-24 06:00:00,9.0,0.0,-100.00,NE,45,10.0,-999.0,67,-99.99,,,-99.99,0.000000,,2013-01-24 11:00:00,
2013-01-24 06:43:00,9.0,0.0,-100.00,NE,45,10.0,-999.0,67,-99.99,,,-99.99,0.000000,,2013-01-24 11:43:00,
2013-01-24 06:53:00,9.0,0.0,-100.00,NE,45,10.0,-999.0,67,-99.99,,,-99.99,0.000000,,2013-01-24 11:53:00,
2013-01-24 07:00:00,7.0,-1.0,-100.00,NE,45,9.0,-999.0,66,-99.99,,,-99.99,0.000000,,2013-01-24 12:00:00,
2013-01-24 07:43:00,7.0,-1.0,-100.00,NE,45,9.0,-999.0,66,-99.99,,,-99.99,0.000000,,2013-01-24 12:43:00,
2013-01-24 07:53:00,7.0,-1.0,-100.00,NE,45,9.0,-999.0,66,-99.99,,,-99.99,0.000000,,2013-01-24 12:53:00,
2013-01-24 09:00:00,7.0,-2.0,-100.00,NE,45,7.0,-999.0,67,-99.99,,,-99.99,23.200001,,2013-01-24 14:00:00,
2013-01-24 09:43:00,7.0,-2.0,-100.00,NE,45,7.0,-999.0,67,-99.99,,,-99.99,23.200001,,2013-01-24 14:43:00,
2013-01-24 09:54:00,7.0,-2.0,-100.00,NE,45,7.0,-999.0,67,-99.99,,,-99.99,23.200001,,2013-01-24 14:54:00,
2013-01-24 10:00:00,9.0,-1.0,-100.00,NE,45,7.0,-999.0,63,-99.99,,,-99.99,153.119995,,2013-01-24 15:00:00,
2013-01-24 10:43:00,9.0,-1.0,-100.00,NE,45,7.0,-999.0,63,-99.99,,,-99.99,153.119995,,2013-01-24 15:43:00,
2013-01-24 10:53:00,9.0,-1.0,-100.00,NE,45,7.0,-999.0,63,-99.99,,,-99.99,153.119995,,2013-01-24 15:53:00,
2013-01-24 11:00:00,13.0,0.0,-100.00,ENE,67,6.0,-999.0,57,-99.99,,,-99.99,270.279999,,2013-01-24 16:00:00,
2013-01-24 11:43:00,13.0,0.0,-100.00,ENE,67,6.0,-999.0,57,-99.99,,,-99.99,270.279999,,2013-01-24 16:43:00,
2013-01-24 12:00:00,13.0,1.0,-100.00,NE,45,6.0,-999.0,57,-99.99,,,-99.99,288.839996,,2013-01-24 17:00:00,
2013-01-24 12:43:00,13.0,1.0,-100.00,NE,45,6.0,-999.0,57,-99.99,,,-99.99,288.839996,,2013-01-24 17:43:00,
2013-01-24 12:53:00,13.0,1.0,-100.00,NE,45,6.0,-999.0,57,-99.99,,,-99.99,288.839996,,2013-01-24 17:53:00,
2013-01-24 13:00:00,15.0,0.0,-100.00,East,90,5.0,-999.0,51,-99.99,,,-99.99,380.480011,,2013-01-24 18:00:00,
2013-01-24 13:43:00,15.0,0.0,-100.00,East,90,5.0,-999.0,51,-99.99,,,-99.99,380.480011,,2013-01-24 18:43:00,
2013-01-24 13:53:00,15.0,0.0,-100.00,East,90,5.0,-999.0,51,-99.99,,,-99.99,380.480011,,2013-01-24 18:53:00,
2013-01-24 14:00:00,15.0,1.0,-100.00,ENE,67,4.0,-999.0,53,-99.99,,,-99.99,332.920013,,2013-01-24 19:00:00,
2013-01-24 14:42:00,15.0,1.0,-100.00,ENE,67,4.0,-999.0,53,-99.99,,,-99.99,332.920013,,2013-01-24 19:42:00,
2013-01-24 14:53:00,15.0,1.0,-100.00,ENE,67,4.0,-999.0,53,-99.99,,,-99.99,332.920013,,2013-01-24 19:53:00,
2013-01-24 15:00:00,15.0,1.0,-100.00,ENE,67,4.0,-999.0,53,-99.99,,,-99.99,321.320007,,2013-01-24 20:00:00,
2013-01-24 15:33:00,15.0,1.0,-100.00,ENE,67,4.0,-999.0,53,-99.99,,,-99.99,321.320007,,2013-01-24 20:33:00,
2013-01-24 15:43:00,15.0,1.0,-100.00,ENE,67,4.0,-999.0,53,-99.99,,,-99.99,321.320007,,2013-01-24 20:43:00,
2013-01-24 15:53:00,15.0,1.0,-100.00,ENE,67,4.0,-999.0,53,-99.99,,,-99.99,321.320007,,2013-01-24 20:53:00,
2013-01-24 16:00:00,13.0,2.0,-100.00,East,90,3.0,-999.0,61,-99.99,,,-99.99,146.160004,,2013-01-24 21:00:00,
2013-01-24 16:43:00,13.0,2.0,-100.00,East,90,3.0,-999.0,61,-99.99,,,-99.99,146.160004,,2013-01-24 21:43:00,
2013-01-24 16:53:00,13.0,2.0,-100.00,East,90,3.0,-999.0,61,-99.99,,,-99.99,146.160004,,2013-01-24 21:53:00,
2013-01-24 17:00:00,12.0,4.0,-100.00,SE,135,2.0,-999.0,69,-99.99,,,-99.99,62.639999,,2013-01-24 22:00:00,
2013-01-24 17:43:00,12.0,4.0,-100.00,SE,135,2.0,-999.0,69,-99.99,,,-99.99,62.639999,,2013-01-24 22:43:00,
2013-01-24 17:53:00,12.0,4.0,-100.00,SE,135,2.0,-999.0,69,-99.99,,,-99.99,62.639999,,2013-01-24 22:53:00,
2013-01-24 18:00:00,10.0,4.0,-100.00,SE,135,1.0,-999.0,75,-99.99,,,-99.99,8.120000,,2013-01-24 23:00:00,
2013-01-24 18:43:00,10.0,4.0,-100.00,SE,135,1.0,-999.0,75,-99.99,,,-99.99,8.120000,,2013-01-24 23:43:00,
2013-01-24 18:52:00,10.0,4.0,-100.00,SE,135,1.0,-999.0,75,-99.99,,,-99.99,8.120000,,2013-01-24 23:52:00,
2013-01-24 19:00:00,9.0,4.0,-100.00,SSE,157,0.0,-999.0,79,-99.99,,,-99.99,0.000000,,2013-01-25 00:00:00,
2013-01-24 19:42:00,9.0,4.0,-100.00,SSE,157,0.0,-999.0,79,-99.99,,,-99.99,0.000000,,2013-01-25 00:42:00,
2013-01-24 19:53:00,9.0,4.0,-100.00,SSE,157,0.0,-999.0,79,-99.99,,,-99.99,0.000000,,2013-01-25 00:53:00,
2013-01-24 20:00:00,10.0,4.0,-100.00,SSE,157,3.0,-999.0,78,-99.99,,,-99.99,0.000000,,2013-01-25 01:00:00,
2013-01-24 20:43:00,10.0,4.0,-100.00,SSE,157,3.0,-999.0,78,-99.99,,,-99.99,0.000000,,2013-01-25 01:43:00,
2013-01-24 20:52:00,10.0,4.0,-100.00,SSE,157,3.0,-999.0,78,-99.99,,,-99.99,0.000000,,2013-01-25 01:52:00,
2013-01-24 21:00:00,10.0,4.0,-100.00,SSE,157,5.0,-999.0,75,-99.99,,,-99.99,0.000000,,2013-01-25 02:00:00,
2013-01-24 21:43:00,10.0,4.0,-100.00,SSE,157,5.0,-999.0,75,-99.99,,,-99.99,0.000000,,2013-01-25 02:43:00,
2013-01-24 21:53:00,10.0,4.0,-100.00,SSE,157,5.0,-999.0,75,-99.99,,,-99.99,0.000000,,2013-01-25 02:53:00,
2013-01-24 22:00:00,11.0,4.0,-100.00,SSE,157,5.0,-999.0,74,-99.99,,,-99.99,0.000000,,2013-01-25 03:00:00,
2013-01-24 22:42:00,11.0,4.0,-100.00,SSE,157,5.0,-999.0,74,-99.99,,,-99.99,0.000000,,2013-01-25 03:42:00,
2013-01-24 22:53:00,11.0,4.0,-100.00,SSE,157,5.0,-999.0,74,-99.99,,,-99.99,0.000000,,2013-01-25 03:53:00,
2013-01-24 23:00:00,11.0,4.0,-100.00,SSE,157,6.0,-999.0,71,-99.99,,,-99.99,0.000000,,2013-01-25 04:00:00,
2013-01-24 23:42:00,11.0,4.0,-100.00,SSE,157,6.0,-999.0,71,-99.99,,,-99.99,0.000000,,2013-01-25 04:42:00,
2013-01-24 23:52:00,11.0,4.0,-100.00,SSE,157,6.0,-999.0,71,-99.99,,,-99.99,0.000000,,2013-01-25 04:52:00,